Regional Weather Roundup
Issued by NWS Kansas City/Pleasant Hill, MO

Home | Current Version | Previous Version | Text Only | Print | Product List | Glossary On
Versions: 1 2 3 4 5 6 7 8 9 10 11 12 13 14 15 16 17 18 19 20 21 22 23 24 25 26 27 28 29 30 31 32 33 34 35 36 37 38 39 40 41 42 43 44 45 46 47 48 49 50
000
ASUS43 KEAX 171711
RWREAX

WEATHER ROUNDUP FOR EASTERN KANSAS AND NORTHWEST MISSOURI
NATIONAL WEATHER SERVICE KANSAS CITY/PLEASANT HILL MO
1200 PM CDT WED SEP 17 2014

KSZ040-057-103>105-MOZ028-029-037-043-171800-
...KANSAS CITY METROPOLITAN AREA...

CITY           SKY/WX    TMP DP  RH WIND       PRES   REMARKS
K.C. INTL      CLOUDY    68  66  93 CALM      29.94S
K.C. DOWNTOWN  CLOUDY    68  64  87 E7        29.93S
LEES SUMMIT    CLOUDY    66  65  96 E6        29.95S FOG
OLATHE - IXD   CLOUDY    71  68  90 S3        29.94S
OLATHE - OJC   CLOUDY    70  67  90 CALM      29.93S
LAWRENCE       CLOUDY    73  67  81 CALM      29.93S HAZE

$$

MOZ001>008-011>017-020>025-030>033-038>040-044>046-053-054-171800-
...NORTHERN AND CENTRAL MISSOURI...

CITY           SKY/WX    TMP DP  RH WIND       PRES   REMARKS
ST. JOSEPH     CLOUDY    67  63  87 VRB3      29.95S
MOSBY          CLOUDY    64  63  94 CALM      29.95S
WHITEMAN AFB   CLOUDY    67  66  96 E3        29.94F
CLINTON        CLOUDY    68  68 100 CALM      29.95S
SEDALIA        CLOUDY    69  66  90 SE3       29.96S
WARSAW         NOT AVBL
MARSHALL       CLOUDY    66  64  94 SE6       29.97F FOG
CHILLICOTHE      N/A     69  62  78 E3        29.97S
MOBERLY        CLOUDY    68  57  68 E5        29.98F
KIRKSVILLE     CLOUDY    64  59  83 SE8       29.98F

$$

MOZ041-047>049-056>058-063>065-088>090-097-171800-
...EASTERN AND SOUTHERN MISSOURI...

CITY           SKY/WX    TMP DP  RH WIND       PRES   REMARKS
ST. LOUIS INTL LGT RAIN  60  56  86 SE10      30.02F
SPIRIT OF STL  CLOUDY    61  56  83 E7        30.00F
COLUMBIA         N/A     61  60  97 SE6       29.97F
JEFFERSON CITY LGT RAIN  65  62  90 CALM      29.96F FOG
MEXICO         CLOUDY    64  64 100 SE6       29.99S
ROLLA          CLOUDY    63  60  90 S10       29.96F
LEBANON        CLOUDY    64  61  88 S10       29.98F
OSAGE BEACH    CLOUDY    66  63  88 S3        29.96F
SPRINGFIELD    TSTM      67  63  87 E26G33    29.97R FOG
BRANSON        PTSUNNY   70  66  88 SE12      30.00F
NEVADA         PTSUNNY   72  68  88 E9        29.94F
JOPLIN         PTSUNNY   83  70  64 SW17      29.93S
WEST PLAINS    RAIN      59  57  93 S13       30.03F FOG

$$

IAZ060-094-KSZ022-034>040-054-083-096-NEZ052-066-093-171800-
...KANSAS...SOUTHEAST NEBRASKA AND IOWA...

CITY           SKY/WX    TMP DP  RH WIND       PRES   REMARKS
TOPEKA         CLOUDY    72  68  87 CALM      29.93S
MANHATTAN      CLOUDY    74  67  78 NE8       29.92S
EMPORIA        MOSUNNY   78  69  73 NE8       29.92S
CHANUTE        MOSUNNY   84  71  65 SW13      29.90F
WICHITA        MOSUNNY   88  65  46 SW15      29.89F HX  90
OMAHA          MOSUNNY   72  61  68 S3        29.94S
LINCOLN        SUNNY     71  62  73 CALM      29.95S
FALLS CITY     CLOUDY    70  64  81 N5        29.93F
LAMONI         SUNNY     70  61  73 VRB5      29.96S
DES MOINES     MOSUNNY   72  59  63 CALM      29.96F

$$




USA.gov is the U.S. government's official web portal to all federal, state and local government web resources and services.